22-01-2023, 00:00:04,    339,    0.0,   -5.9,   0.00,   0.00, 1029.4,    0.1, -999.0
22-01-2023, 00:00:14,    338,    0.0,   -5.9,   0.00,   0.00, 1029.3,    0.0, -999.0
22-01-2023, 00:00:23,    338,    0.0,   -5.9,   0.00,   0.00, 1029.3,    0.1, -999.0
22-01-2023, 00:00:33,    338,    0.0,   -6.0,   0.00,   0.00, 1029.3,    0.1, -999.0
22-01-2023, 00:00:44,    339,    0.0,   -5.9,   0.00,   0.00, 1029.3,    0.2, -999.0
22-01-2023, 00:00:54,    338,    0.0,   -5.9,   0.00,   0.00, 1029.3,    0.1, -999.0
22-01-2023, 00:01:03,    338,    0.0,   -6.0,   0.00,   0.00, 1029.3,    0.2, -999.0
22-01-2023, 00:01:14,    339,    0.0,   -6.0,   0.00,   0.00, 1029.3,    0.1, -999.0
22-01-2023, 00:01:24,    338,    0.0,   -5.9,   0.00,   0.00, 1029.3,    0.0, -999.0
22-01-2023, 00:01:33,    338,    0.0,   -6.0,   0.00,   0.00, 1029.3,    0.1, -999.0
22-01-2023, 00:01:43,    338,    0.0,   -5.9,   0.00,   0.00, 1029.3,    0.1, -999.0
22-01-2023, 00:01:54,    338,    0.0,   -6.0,   0.00,   0.00, 1029.2,    0.0, -999.0
22-01-2023, 00:02:03,    339,    0.0,   -5.9,   0.00,   0.00, 1029.3,    0.1, -999.0
22-01-2023, 00:02:13,    338,    0.0,   -5.9,   0.00,   0.00, 1029.2,    0.2, -999.0
22-01-2023, 00:02:23,    338,    0.0,   -6.0,   0.00,   0.00, 1029.2,    0.0, -999.0
22-01-2023, 00:02:34,    338,    0.0,   -6.0,   0.00,   0.00, 1029.3,    0.1, -999.0
22-01-2023, 00:02:43,    339,    0.0,   -6.0,   0.00,   0.00, 1029.3,    0.1, -999.0
22-01-2023, 00:02:53,    338,    0.0,   -6.0,   0.00,   0.00, 1029.2,    0.1, -999.0
22-01-2023, 00:03:03,    339,    0.0,   -5.9,   0.00,   0.00, 1029.3,    0.2, -999.0
22-01-2023, 00:03:13,    338,    0.0,   -6.0,   0.00,   0.00, 1029.2,    0.1, -999.0
22-01-2023, 00:03:23,    338,    0.0,   -6.0,   0.00,   0.00, 1029.2,    0.0, -999.0
22-01-2023, 00:03:33,    338,    0.0,   -6.1,   0.00,   0.00, 1029.2,    0.1, -999.0
22-01-2023, 00:03:43,    338,    0.0,   -5.9,   0.00,   0.00, 1029.3,    0.1, -999.0
22-01-2023, 00:03:53,    339,    0.0,   -5.9,   0.00,   0.00, 1029.2,    0.1, -999.0
22-01-2023, 00:04:03,    338,    0.0,   -6.0,   0.00,   0.00, 1029.2,    0.1, -999.0
22-01-2023, 00:04:13,    339,    0.0,   -5.9,   0.00,   0.00, 1029.2,    0.1, -999.0
22-01-2023, 00:04:23,    339,    0.0,   -6.0,   0.00,   0.00, 1029.2,    0.1, -999.0
22-01-2023, 00:04:33,    338,    0.0,   -6.0,   0.00,   0.00, 1029.2,    0.1, -999.0
22-01-2023, 00:04:43,    340,    0.0,   -5.9,   0.00,   0.00, 1029.2,    0.1, -999.0
22-01-2023, 00:04:53,    339,    0.0,   -6.0,   0.00,   0.00, 1029.2,    0.2, -999.0
22-01-2023, 00:05:03,    338,    0.0,   -6.0,   0.00,   0.00, 1029.3,    0.1, -999.0
22-01-2023, 00:05:13,    338,    0.0,   -6.0,   0.00,   0.00, 1029.2,    0.0, -999.0
22-01-2023, 00:05:23,    338,    0.0,   -6.0,   0.00,   0.00, 1029.2,    0.1, -999.0
22-01-2023, 00:05:33,    338,    0.0,   -6.0,   0.00,   0.00, 1029.2,    0.2, -999.0
22-01-2023, 00:05:43,    338,    0.0,   -6.0,   0.00,   0.00, 1029.3,    0.1, -999.0
22-01-2023, 00:05:53,    338,    0.0,   -6.0,   0.00,   0.00, 1029.2,    0.0, -999.0
22-01-2023, 00:06:03,    339,    0.0,   -5.9,   0.00,   0.00, 1029.3,    0.2, -999.0
22-01-2023, 00:06:13,    339,    0.0,   -6.0,   0.00,   0.00, 1029.2,    0.0, -999.0
22-01-2023, 00:06:23,    339,    0.0,   -6.0,   0.00,   0.00, 1029.2,    0.0, -999.0
22-01-2023, 00:06:33,    338,    0.0,   -6.0,   0.00,   0.00, 1029.2,    0.0, -999.0
22-01-2023, 00:06:43,    338,    0.0,   -6.1,   0.00,   0.00, 1029.2,    0.0, -999.0
22-01-2023, 00:06:53,    338,    0.0,   -6.0,   0.00,   0.00, 1029.2,    0.1, -999.0
22-01-2023, 00:07:03,    339,    0.0,   -6.0,   0.00,   0.00, 1029.3,    0.1, -999.0
22-01-2023, 00:07:13,    339,    0.0,   -6.0,   0.00,   0.00, 1029.3,    0.0, -999.0
22-01-2023, 00:07:23,    338,    0.0,   -6.0,   0.00,   0.00, 1029.2,    0.1, -999.0
22-01-2023, 00:07:33,    339,    0.0,   -6.0,   0.00,   0.00, 1029.2,    0.0, -999.0
22-01-2023, 00:07:43,    338,    0.0,   -6.1,   0.00,   0.00, 1029.3,    0.0, -999.0
22-01-2023, 00:07:53,    338,    0.0,   -6.0,   0.00,   0.00, 1029.3,    0.2, -999.0
22-01-2023, 00:08:03,    338,    0.0,   -6.0,   0.00,   0.00, 1029.3,    0.2, -999.0
22-01-2023, 00:08:13,    338,    0.0,   -6.0,   0.00,   0.00, 1029.3,    0.0, -999.0
22-01-2023, 00:08:23,    338,    0.0,   -6.0,   0.00,   0.00, 1029.3,    0.1, -999.0
22-01-2023, 00:08:33,    338,    0.0,   -6.0,   0.00,   0.00, 1029.3,    0.0, -999.0
22-01-2023, 00:08:43,    338,    0.0,   -6.0,   0.00,   0.00, 1029.3,    0.1, -999.0
22-01-2023, 00:08:53,    338,    0.0,   -6.0,   0.00,   0.00, 1029.3,    0.0, -999.0
22-01-2023, 00:09:03,    339,    0.0,   -6.1,   0.00,   0.00, 1029.3,    0.0, -999.0
22-01-2023, 00:09:13,    338,    0.0,   -6.0,   0.00,   0.00, 1029.3,    0.0, -999.0
22-01-2023, 00:09:22,    338,    0.0,   -6.0,   0.00,   0.00, 1029.3,    0.1, -999.0
22-01-2023, 00:09:33,    338,    0.0,   -6.0,   0.00,   0.00, 1029.3,    0.2, -999.0
22-01-2023, 00:09:43,    338,    0.0,   -6.0,   0.00,   0.00, 1029.3,    0.1, -999.0
22-01-2023, 00:09:53,    338,    0.0,   -6.0,   0.00,   0.00, 1029.3,    0.1, -999.0
22-01-2023, 00:10:02,    338,    0.0,   -6.0,   0.00,   0.00, 1029.2,    0.1, -999.0
22-01-2023, 00:10:13,    338,    0.0,   -6.1,   0.00,   0.00, 1029.2,    0.1, -999.0
22-01-2023, 00:10:23,    339,    0.0,   -6.0,   0.00,   0.00, 1029.2,    0.0, -999.0
22-01-2023, 00:10:32,    338,    0.0,   -6.0,   0.00,   0.00, 1029.2,    0.1, -999.0
22-01-2023, 00:10:42,    337,    0.0,   -6.0,   0.00,   0.00, 1029.2,    0.1, -999.0
22-01-2023, 00:10:53,    339,    0.0,   -6.1,   0.00,   0.00, 1029.2,    0.1, -999.0
22-01-2023, 00:11:03,    339,    0.0,   -5.9,   0.00,   0.00, 1029.2,    0.1, -999.0
22-01-2023, 00:11:12,    339,    0.0,   -5.9,   0.00,   0.00, 1029.2,    0.3, -999.0
22-01-2023, 00:11:22,    338,    0.0,   -6.0,   0.00,   0.00, 1029.2,    0.2, -999.0
22-01-2023, 00:11:33,    338,    0.0,   -6.0,   0.00,   0.00, 1029.2,    0.1, -999.0
22-01-2023, 00:11:42,    338,    0.0,   -5.9,   0.00,   0.00, 1029.2,    0.0, -999.0
22-01-2023, 00:11:52,    339,    0.0,   -6.0,   0.00,   0.00, 1029.2,    0.1, -999.0
22-01-2023, 00:12:03,    338,    0.0,   -5.9,   0.00,   0.00, 1029.2,    0.1, -999.0
22-01-2023, 00:12:12,    338,    0.0,   -5.9,   0.00,   0.00, 1029.2,    0.1, -999.0
22-01-2023, 00:12:22,    338,    0.0,   -5.9,   0.00,   0.00, 1029.2,    0.1, -999.0
22-01-2023, 00:12:32,    338,    0.0,   -5.9,   0.00,   0.00, 1029.2,    0.1, -999.0
22-01-2023, 00:12:43,    338,    0.0,   -5.8,   0.00,   0.00, 1029.2,    0.1, -999.0
22-01-2023, 00:12:52,    339,    0.0,   -5.9,   0.00,   0.00, 1029.2,    0.1, -999.0
22-01-2023, 00:13:02,    338,    0.0,   -5.9,   0.00,   0.00, 1029.2,    0.1, -999.0
22-01-2023, 00:13:12,    338,    0.0,   -5.8,   0.00,   0.00, 1029.2,    0.1, -999.0
22-01-2023, 00:13:22,    338,    0.0,   -5.9,   0.00,   0.00, 1029.2,    0.0, -999.0
22-01-2023, 00:13:32,    339,    0.0,   -5.8,   0.00,   0.00, 1029.2,    0.0, -999.0
22-01-2023, 00:13:42,    339,    0.0,   -5.9,   0.00,   0.00, 1029.2,    0.1, -999.0
22-01-2023, 00:13:52,    338,    0.0,   -5.7,   0.00,   0.00, 1029.2,    0.1, -999.0
22-01-2023, 00:14:02,    338,    0.0,   -5.8,   0.00,   0.00, 1029.2,    0.0, -999.0
22-01-2023, 00:14:12,    338,    0.0,   -5.8,   0.00,   0.00, 1029.2,    0.1, -999.0
22-01-2023, 00:14:22,    339,    0.0,   -5.7,   0.00,   0.00, 1029.2,    0.0, -999.0
22-01-2023, 00:14:32,    339,    0.0,   -5.7,   0.00,   0.00, 1029.2,    0.1, -999.0
22-01-2023, 00:14:42,    338,    0.0,   -5.7,   0.00,   0.00, 1029.2,    0.2, -999.0
22-01-2023, 00:14:52,    339,    0.0,   -5.8,   0.00,   0.00, 1029.2,    0.2, -999.0
22-01-2023, 00:15:02,    338,    0.0,   -5.7,   0.00,   0.00, 1029.2,    0.0, -999.0
22-01-2023, 00:15:12,    338,    0.0,   -5.8,   0.00,   0.00, 1029.2,    0.1, -999.0
22-01-2023, 00:15:22,    338,    0.0,   -5.8,   0.00,   0.00, 1029.2,    0.1, -999.0
22-01-2023, 00:15:32,    338,    0.0,   -5.8,   0.00,   0.00, 1029.2,    0.1, -999.0
22-01-2023, 00:15:42,    339,    0.0,   -5.8,   0.00,   0.00, 1029.2,    0.0, -999.0
22-01-2023, 00:15:52,    338,    0.0,   -5.8,   0.00,   0.00, 1029.2,    0.0, -999.0
22-01-2023, 00:16:02,    338,    0.0,   -5.8,   0.00,   0.00, 1029.2,    0.1, -999.0
22-01-2023, 00:16:12,    339,    0.0,   -5.8,   0.00,   0.00, 1029.2,    0.0, -999.0
22-01-2023, 00:16:22,    339,    0.0,   -6.0,   0.00,   0.00, 1029.2,    0.0, -999.0
22-01-2023, 00:16:32,    338,    0.0,   -5.8,   0.00,   0.00, 1029.2,    0.0, -999.0
22-01-2023, 00:16:42,    338,    0.0,   -5.8,   0.00,   0.00, 1029.2,    0.1, -999.0
22-01-2023, 00:16:52,    338,    0.0,   -5.8,   0.00,   0.00, 1029.2,    0.0, -999.0
22-01-2023, 00:17:02,    338,    0.0,   -5.8,   0.00,   0.00, 1029.2,    0.0, -999.0
22-01-2023, 00:17:12,    332,    0.0,   -5.8,   0.00,   0.00, 1029.2,    0.1, -999.0
22-01-2023, 00:17:22,    338,    0.0,   -5.8,   0.00,   0.00, 1029.2,    0.1, -999.0
22-01-2023, 00:17:32,    338,    0.0,   -5.8,   0.00,   0.00, 1029.2,    0.1, -999.0
22-01-2023, 00:17:42,    339,    0.0,   -5.8,   0.00,   0.00, 1029.1,    0.2, -999.0
22-01-2023, 00:17:52,    338,    0.0,   -5.8,   0.00,   0.00, 1029.1,    0.0, -999.0
22-01-2023, 00:18:02,    338,    0.0,   -5.8,   0.00,   0.00, 1029.1,    0.0, -999.0
22-01-2023, 00:18:12,    338,    0.0,   -5.9,   0.00,   0.00, 1029.1,    0.1, -999.0
22-01-2023, 00:18:21,    338,    0.0,   -5.9,   0.00,   0.00, 1029.1,    0.1, -999.0
22-01-2023, 00:18:32,    338,    0.0,   -5.9,   0.00,   0.00, 1029.1,    0.0, -999.0
22-01-2023, 00:18:42,    338,    0.0,   -5.9,   0.00,   0.00, 1029.1,    0.1, -999.0
22-01-2023, 00:18:52,    338,    0.0,   -5.9,   0.00,   0.00, 1029.2,    0.2, -999.0
22-01-2023, 00:19:01,    338,    0.0,   -5.9,   0.00,   0.00, 1029.1,    0.1, -999.0
22-01-2023, 00:19:12,    339,    0.0,   -5.9,   0.00,   0.00, 1029.1,    0.1, -999.0
22-01-2023, 00:19:22,    338,    0.0,   -5.9,   0.00,   0.00, 1029.2,    0.0, -999.0
22-01-2023, 00:19:31,    338,    0.0,   -5.9,   0.00,   0.00, 1029.2,    0.1, -999.0
22-01-2023, 00:19:42,    338,    0.0,   -5.9,   0.00,   0.00, 1029.2,    0.2, -999.0
22-01-2023, 00:19:52,    338,    0.0,   -6.0,   0.00,   0.00, 1029.2,    0.2, -999.0
22-01-2023, 00:20:02,    339,    0.0,   -6.0,   0.00,   0.00, 1029.1,    0.2, -999.0
22-01-2023, 00:20:11,    338,    0.0,   -5.9,   0.00,   0.00, 1029.2,    0.1, -999.0
22-01-2023, 00:20:22,    338,    0.0,   -5.9,   0.00,   0.00, 1029.2,    0.1, -999.0
22-01-2023, 00:20:32,    339,    0.0,   -5.9,   0.00,   0.00, 1029.2,    0.1, -999.0
22-01-2023, 00:20:41,    338,    0.0,   -5.9,   0.00,   0.00, 1029.1,    0.1, -999.0
22-01-2023, 00:20:51,    338,    0.0,   -5.8,   0.00,   0.00, 1029.2,    0.0, -999.0
22-01-2023, 00:21:02,    338,    0.0,   -6.0,   0.00,   0.00, 1029.2,    0.2, -999.0
22-01-2023, 00:21:11,    338,    0.0,   -6.0,   0.00,   0.00, 1029.2,    0.0, -999.0
22-01-2023, 00:21:21,    339,    0.0,   -5.9,   0.00,   0.00, 1029.2,    0.0, -999.0
22-01-2023, 00:21:31,    337,    0.0,   -6.0,   0.00,   0.00, 1029.1,    0.0, -999.0
22-01-2023, 00:21:42,    338,    0.0,   -6.1,   0.00,   0.00, 1029.1,    0.0, -999.0
22-01-2023, 00:21:51,    338,    0.0,   -6.0,   0.00,   0.00, 1029.1,    0.1, -999.0
22-01-2023, 00:22:01,    338,    0.0,   -6.0,   0.00,   0.00, 1029.2,    0.1, -999.0
22-01-2023, 00:22:11,    338,    0.0,   -6.0,   0.00,   0.00, 1029.2,    0.0, -999.0
22-01-2023, 00:22:21,    338,    0.0,   -6.0,   0.00,   0.00, 1029.2,    0.1, -999.0
22-01-2023, 00:22:31,    338,    0.0,   -6.0,   0.00,   0.00, 1029.2,    0.1, -999.0
22-01-2023, 00:22:41,    339,    0.0,   -5.9,   0.00,   0.00, 1029.2,    0.3, -999.0
22-01-2023, 00:22:51,    338,    0.0,   -6.0,   0.00,   0.00, 1029.2,    0.0, -999.0
22-01-2023, 00:23:01,    338,    0.0,   -6.1,   0.00,   0.00, 1029.2,    0.1, -999.0
22-01-2023, 00:23:11,    338,    0.0,   -6.0,   0.00,   0.00, 1029.2,    0.0, -999.0
22-01-2023, 00:23:21,    338,    0.0,   -6.0,   0.00,   0.00, 1029.2,    0.1, -999.0
22-01-2023, 00:23:31,    338,    0.0,   -6.2,   0.00,   0.00, 1029.2,    0.1, -999.0
22-01-2023, 00:23:41,    338,    0.0,   -6.1,   0.00,   0.00, 1029.2,    0.1, -999.0
22-01-2023, 00:23:51,    338,    0.0,   -6.1,   0.00,   0.00, 1029.2,    0.0, -999.0
22-01-2023, 00:24:01,    338,    0.0,   -6.0,   0.00,   0.00, 1029.1,    0.2, -999.0
22-01-2023, 00:24:11,    339,    0.0,   -6.1,   0.00,   0.00, 1029.2,    0.2, -999.0
22-01-2023, 00:24:21,    339,    0.0,   -6.2,   0.00,   0.00, 1029.2,    0.1, -999.0
22-01-2023, 00:24:31,    338,    0.0,   -6.1,   0.00,   0.00, 1029.1,    0.2, -999.0
22-01-2023, 00:24:41,    338,    0.0,   -6.2,   0.00,   0.00, 1029.2,    0.3, -999.0
22-01-2023, 00:24:51,    338,    0.0,   -6.1,   0.00,   0.00, 1029.2,    0.1, -999.0
22-01-2023, 00:25:01,    338,    0.0,   -6.2,   0.00,   0.00, 1029.2,    0.2, -999.0
22-01-2023, 00:25:11,    338,    0.0,   -6.2,   0.00,   0.00, 1029.1,    0.0, -999.0
22-01-2023, 00:25:21,    338,    0.0,   -6.1,   0.00,   0.00, 1029.2,    0.1, -999.0
22-01-2023, 00:25:31,    339,    0.0,   -6.2,   0.00,   0.00, 1029.2,    0.2, -999.0
22-01-2023, 00:25:41,    339,    0.0,   -6.2,   0.00,   0.00, 1029.2,    0.1, -999.0
22-01-2023, 00:25:51,    338,    0.0,   -6.2,   0.00,   0.00, 1029.2,    0.0, -999.0
22-01-2023, 00:26:01,    338,    0.0,   -6.1,   0.00,   0.00, 1029.2,    0.1, -999.0
22-01-2023, 00:26:11,    338,    0.0,   -6.1,   0.00,   0.00, 1029.2,    0.1, -999.0
22-01-2023, 00:26:21,    338,    0.0,   -6.2,   0.00,   0.00, 1029.2,    0.1, -999.0
22-01-2023, 00:26:31,    338,    0.0,   -6.1,   0.00,   0.00, 1029.2,    0.1, -999.0
22-01-2023, 00:26:41,    338,    0.0,   -6.1,   0.00,   0.00, 1029.2,    0.1, -999.0
22-01-2023, 00:26:51,    338,    0.0,   -6.1,   0.00,   0.00, 1029.2,    0.0, -999.0
22-01-2023, 00:27:01,    338,    0.0,   -6.2,   0.00,   0.00, 1029.2,    0.1, -999.0
22-01-2023, 00:27:11,    338,    0.0,   -6.2,   0.00,   0.00, 1029.2,    0.2, -999.0
22-01-2023, 00:27:21,    338,    0.0,   -6.2,   0.00,   0.00, 1029.2,    0.2, -999.0
22-01-2023, 00:27:31,    338,    0.0,   -6.2,   0.00,   0.00, 1029.2,    0.1, -999.0
22-01-2023, 00:27:41,    338,    0.0,   -6.2,   0.00,   0.00, 1029.2,    0.1, -999.0
22-01-2023, 00:27:51,    338,    0.0,   -6.2,   0.00,   0.00, 1029.2,    0.1, -999.0
22-01-2023, 00:28:01,    338,    0.0,   -6.1,   0.00,   0.00, 1029.2,    0.1, -999.0
22-01-2023, 00:28:11,    338,    0.0,   -6.2,   0.00,   0.00, 1029.2,    0.1, -999.0
22-01-2023, 00:28:21,    338,    0.0,   -6.2,   0.00,   0.00, 1029.2,    0.2, -999.0
22-01-2023, 00:28:30,    338,    0.0,   -6.2,   0.00,   0.00, 1029.2,    0.0, -999.0
22-01-2023, 00:28:41,    339,    0.0,   -6.1,   0.00,   0.00, 1029.2,    0.0, -999.0
22-01-2023, 00:28:51,    338,    0.0,   -6.1,   0.00,   0.00, 1029.2,    0.2, -999.0
22-01-2023, 00:29:01,    338,    0.0,   -6.2,   0.00,   0.00, 1029.2,    0.0, -999.0
22-01-2023, 00:29:10,    339,    0.0,   -6.1,   0.00,   0.00, 1029.2,    0.2, -999.0
22-01-2023, 00:29:21,    339,    0.0,   -6.1,   0.00,   0.00, 1029.2,    0.1, -999.0
22-01-2023, 00:29:31,    338,    0.0,   -6.1,   0.00,   0.00, 1029.2,    0.0, -999.0
22-01-2023, 00:29:40,    339,    0.0,   -6.2,   0.00,   0.00, 1029.2,    0.1, -999.0
22-01-2023, 00:29:50,    338,    0.0,   -6.2,   0.00,   0.00, 1029.2,    0.1, -999.0
22-01-2023, 00:30:01,    338,    0.0,   -6.2,   0.00,   0.00, 1029.1,    0.1, -999.0
22-01-2023, 00:30:10,    338,    0.0,   -6.1,   0.00,   0.00, 1029.2,    0.1, -999.0
22-01-2023, 00:30:20,    338,    0.0,   -6.1,   0.00,   0.00, 1029.2,    0.2, -999.0
22-01-2023, 00:30:30,    339,    0.0,   -6.2,   0.00,   0.00, 1029.2,    0.2, -999.0
22-01-2023, 00:30:41,    338,    0.0,   -6.2,   0.00,   0.00, 1029.2,    0.0, -999.0
22-01-2023, 00:30:50,    338,    0.0,   -6.2,   0.00,   0.00, 1029.2,    0.1, -999.0
22-01-2023, 00:31:00,    338,    0.0,   -6.3,   0.00,   0.00, 1029.2,    0.1, -999.0
22-01-2023, 00:31:10,    339,    0.0,   -6.3,   0.00,   0.00, 1029.2,    0.2, -999.0
22-01-2023, 00:31:20,    338,    0.0,   -6.1,   0.00,   0.00, 1029.2,    0.1, -999.0
22-01-2023, 00:31:30,    338,    0.0,   -6.0,   0.00,   0.00, 1029.2,    0.2, -999.0
22-01-2023, 00:31:40,    338,    0.0,   -6.1,   0.00,   0.00, 1029.2,    0.0, -999.0
22-01-2023, 00:31:51,    338,    0.0,   -6.1,   0.00,   0.00, 1029.1,    0.1, -999.0
22-01-2023, 00:32:00,    338,    0.0,   -6.1,   0.00,   0.00, 1029.1,    0.0, -999.0
22-01-2023, 00:32:10,    339,    0.0,   -6.1,   0.00,   0.00, 1029.2,    0.1, -999.0
22-01-2023, 00:32:20,    338,    0.0,   -6.1,   0.00,   0.00, 1029.1,    0.1, -999.0
22-01-2023, 00:32:30,    338,    0.0,   -6.1,   0.00,   0.00, 1029.1,    0.1, -999.0
22-01-2023, 00:32:40,    338,    0.0,   -6.1,   0.00,   0.00, 1029.1,    0.1, -999.0
22-01-2023, 00:32:50,    339,    0.0,   -6.1,   0.00,   0.00, 1029.2,    0.0, -999.0
22-01-2023, 00:33:00,    339,    0.0,   -6.1,   0.00,   0.00, 1029.1,    0.2, -999.0
22-01-2023, 00:33:10,    338,    0.0,   -6.1,   0.00,   0.00, 1029.1,    0.0, -999.0
22-01-2023, 00:33:20,    339,    0.0,   -6.1,   0.00,   0.00, 1029.1,    0.1, -999.0
22-01-2023, 00:33:30,    338,    0.0,   -6.1,   0.00,   0.00, 1029.1,    0.1, -999.0
22-01-2023, 00:33:40,    338,    0.0,   -6.1,   0.00,   0.00, 1029.1,    0.0, -999.0
22-01-2023, 00:33:50,    338,    0.0,   -6.1,   0.00,   0.00, 1029.1,    0.1, -999.0
22-01-2023, 00:34:00,    338,    0.0,   -6.1,   0.00,   0.00, 1029.1,    0.1, -999.0
22-01-2023, 00:34:10,    338,    0.0,   -6.1,   0.00,   0.00, 1029.2,    0.1, -999.0
22-01-2023, 00:34:20,    339,    0.0,   -6.1,   0.00,   0.00, 1029.1,    0.1, -999.0
22-01-2023, 00:34:30,    339,    0.0,   -6.1,   0.00,   0.00, 1029.2,    0.0, -999.0
22-01-2023, 00:34:40,    338,    0.0,   -6.1,   0.00,   0.00, 1029.1,    0.0, -999.0
22-01-2023, 00:34:50,    339,    0.0,   -6.2,   0.00,   0.00, 1029.2,    0.2, -999.0
22-01-2023, 00:35:00,    338,    0.0,   -6.1,   0.00,   0.00, 1029.2,    0.1, -999.0
22-01-2023, 00:35:10,    339,    0.0,   -6.1,   0.00,   0.00, 1029.2,    0.1, -999.0
22-01-2023, 00:35:20,    338,    0.0,   -6.2,   0.00,   0.00, 1029.2,    0.1, -999.0
22-01-2023, 00:35:30,    338,    0.0,   -6.2,   0.00,   0.00, 1029.1,    0.1, -999.0
22-01-2023, 00:35:40,    338,    0.0,   -6.1,   0.00,   0.00, 1029.2,    0.1, -999.0
22-01-2023, 00:35:50,    338,    0.0,   -6.1,   0.00,   0.00, 1029.1,    0.1, -999.0
22-01-2023, 00:36:00,    338,    0.0,   -6.2,   0.00,   0.00, 1029.1,    0.1, -999.0
22-01-2023, 00:36:10,    338,    0.0,   -6.3,   0.00,   0.00, 1029.1,    0.1, -999.0
22-01-2023, 00:36:20,    339,    0.0,   -6.2,   0.00,   0.00, 1029.1,    0.1, -999.0
22-01-2023, 00:36:30,    338,    0.0,   -6.1,   0.00,   0.00, 1029.2,    0.1, -999.0
22-01-2023, 00:36:40,    338,    0.0,   -6.1,   0.00,   0.00, 1029.2,    0.0, -999.0
22-01-2023, 00:36:50,    338,    0.0,   -6.1,   0.00,   0.00, 1029.2,    0.1, -999.0
22-01-2023, 00:37:00,    339,    0.0,   -6.1,   0.00,   0.00, 1029.2,    0.2, -999.0
22-01-2023, 00:37:10,    338,    0.0,   -6.2,   0.00,   0.00, 1029.1,    0.0, -999.0
22-01-2023, 00:37:20,    339,    0.0,   -6.1,   0.00,   0.00, 1029.2,    0.1, -999.0
22-01-2023, 00:37:30,    339,    0.0,   -6.2,   0.00,   0.00, 1029.2,    0.1, -999.0
22-01-2023, 00:37:39,    339,    0.0,   -6.1,   0.00,   0.00, 1029.1,    0.0, -999.0
22-01-2023, 00:37:50,    338,    0.0,   -6.2,   0.00,   0.00, 1029.1,    0.2, -999.0
22-01-2023, 00:38:00,    338,    0.0,   -6.2,   0.00,   0.00, 1029.2,    0.1, -999.0
22-01-2023, 00:38:10,    338,    0.0,   -6.2,   0.00,   0.00, 1029.1,    0.1, -999.0
22-01-2023, 00:38:19,    338,    0.0,   -6.2,   0.00,   0.00, 1029.1,    0.1, -999.0
22-01-2023, 00:38:30,    338,    0.0,   -6.2,   0.00,   0.00, 1029.1,    0.1, -999.0
22-01-2023, 00:38:40,    338,    0.0,   -6.1,   0.00,   0.00, 1029.1,    0.1, -999.0
22-01-2023, 00:38:49,    338,    0.0,   -6.1,   0.00,   0.00, 1029.1,    0.1, -999.0
22-01-2023, 00:38:59,    338,    0.0,   -6.2,   0.00,   0.00, 1029.1,    0.0, -999.0
22-01-2023, 00:39:10,    338,    0.0,   -6.2,   0.00,   0.00, 1029.1,    0.1, -999.0
22-01-2023, 00:39:20,    338,    0.0,   -6.2,   0.00,   0.00, 1029.1,    0.1, -999.0
22-01-2023, 00:39:29,    338,    0.0,   -6.2,   0.00,   0.00, 1029.1,    0.1, -999.0
22-01-2023, 00:39:39,    338,    0.0,   -6.1,   0.00,   0.00, 1029.1,    0.1, -999.0
22-01-2023, 00:39:50,    338,    0.0,   -6.2,   0.00,   0.00, 1029.1,    0.1, -999.0
22-01-2023, 00:39:59,    339,    0.0,   -6.2,   0.00,   0.00, 1029.1,    0.0, -999.0
22-01-2023, 00:40:09,    338,    0.0,   -6.2,   0.00,   0.00, 1029.1,    0.0, -999.0
22-01-2023, 00:40:19,    338,    0.0,   -6.2,   0.00,   0.00, 1029.1,    0.0, -999.0
22-01-2023, 00:40:30,    338,    0.0,   -6.2,   0.00,   0.00, 1029.0,    0.1, -999.0
22-01-2023, 00:40:39,    339,    0.0,   -6.2,   0.00,   0.00, 1029.0,    0.1, -999.0
22-01-2023, 00:40:49,    339,    0.0,   -6.2,   0.00,   0.00, 1029.1,    0.1, -999.0
22-01-2023, 00:40:59,    338,    0.0,   -6.3,   0.00,   0.00, 1029.0,    0.1, -999.0
22-01-2023, 00:41:09,    338,    0.0,   -6.3,   0.00,   0.00, 1029.0,    0.1, -999.0
22-01-2023, 00:41:19,    338,    0.0,   -6.4,   0.00,   0.00, 1029.0,    0.2, -999.0
22-01-2023, 00:41:29,    338,    0.0,   -6.1,   0.00,   0.00, 1029.1,    0.0, -999.0
22-01-2023, 00:41:39,    338,    0.0,   -6.2,   0.00,   0.00, 1029.1,    0.1, -999.0
22-01-2023, 00:41:49,    338,    0.0,   -6.3,   0.00,   0.00, 1029.1,    0.1, -999.0
22-01-2023, 00:41:59,    338,    0.0,   -6.2,   0.00,   0.00, 1029.1,    0.1, -999.0
22-01-2023, 00:42:09,    339,    0.0,   -6.2,   0.00,   0.00, 1029.0,    0.1, -999.0
22-01-2023, 00:42:19,    338,    0.0,   -6.3,   0.00,   0.00, 1029.1,    0.1, -999.0
22-01-2023, 00:42:29,    338,    0.0,   -6.3,   0.00,   0.00, 1029.1,    0.1, -999.0
22-01-2023, 00:42:39,    338,    0.0,   -6.3,   0.00,   0.00, 1029.1,    0.1, -999.0
22-01-2023, 00:42:49,    338,    0.0,   -6.3,   0.00,   0.00, 1029.1,    0.1, -999.0
22-01-2023, 00:42:59,    339,    0.0,   -6.3,   0.00,   0.00, 1029.1,    0.1, -999.0
22-01-2023, 00:43:09,    338,    0.0,   -6.3,   0.00,   0.00, 1029.1,    0.0, -999.0
22-01-2023, 00:43:19,    338,    0.0,   -6.3,   0.00,   0.00, 1029.2,    0.2, -999.0
22-01-2023, 00:43:29,    338,    0.0,   -6.4,   0.00,   0.00, 1029.1,    0.1, -999.0
22-01-2023, 00:43:39,    338,    0.0,   -6.3,   0.00,   0.00, 1029.1,    0.0, -999.0
22-01-2023, 00:43:49,    338,    0.0,   -6.3,   0.00,   0.00, 1029.1,    0.1, -999.0
22-01-2023, 00:43:59,    338,    0.0,   -6.3,   0.00,   0.00, 1029.1,    0.1, -999.0
22-01-2023, 00:44:09,    339,    0.0,   -6.4,   0.00,   0.00, 1029.2,    0.1, -999.0
22-01-2023, 00:44:19,    338,    0.0,   -6.3,   0.00,   0.00, 1029.1,    0.0, -999.0
22-01-2023, 00:44:29,    338,    0.0,   -6.3,   0.00,   0.00, 1029.2,    0.0, -999.0
22-01-2023, 00:44:39,    339,    0.0,   -6.3,   0.00,   0.00, 1029.2,    0.1, -999.0
22-01-2023, 00:44:49,    338,    0.0,   -6.3,   0.00,   0.00, 1029.1,    0.1, -999.0
22-01-2023, 00:44:59,    338,    0.0,   -6.3,   0.00,   0.00, 1029.2,    0.0, -999.0
22-01-2023, 00:45:09,    338,    0.0,   -6.3,   0.00,   0.00, 1029.2,    0.1, -999.0
22-01-2023, 00:45:19,    338,    0.0,   -6.3,   0.00,   0.00, 1029.2,    0.1, -999.0
22-01-2023, 00:45:29,    339,    0.0,   -6.3,   0.00,   0.00, 1029.1,    0.1, -999.0
22-01-2023, 00:45:39,    338,    0.0,   -6.3,   0.00,   0.00, 1029.1,    0.1, -999.0
22-01-2023, 00:45:49,    338,    0.0,   -6.3,   0.00,   0.00, 1029.1,    0.0, -999.0
22-01-2023, 00:45:59,    338,    0.0,   -6.3,   0.00,   0.00, 1029.1,    0.1, -999.0
22-01-2023, 00:46:09,    338,    0.0,   -6.5,   0.00,   0.00, 1029.1,    0.1, -999.0
22-01-2023, 00:46:19,    338,    0.0,   -6.3,   0.00,   0.00, 1029.1,    0.1, -999.0
22-01-2023, 00:46:29,    338,    0.0,   -6.3,   0.00,   0.00, 1029.2,    0.1, -999.0
22-01-2023, 00:46:39,    339,    0.0,   -6.3,   0.00,   0.00, 1029.1,    0.0, -999.0
22-01-2023, 00:46:49,    339,    0.0,   -6.4,   0.00,   0.00, 1029.1,    0.0, -999.0